Weather History for Cartersville, GA

Change the Weather History Date:

Sunday, December 18, 2011

  Actual Average Record
Temperature  
Mean Temperature 40 °F 42 °F  
Max Temperature 52 °F 53 °F 71 °F (2006)
Min Temperature 27 °F 31 °F 17 °F (2000)
Degree Days  
Heating Degree Days 26 23  
Month to date heating degree days 384  
Since 1 July heating degree days 993  
Moisture  
Dew Point 28 °F    
Average Humidity 74    
Maximum Humidity 96    
Minimum Humidity 37    
Precipitation  
Precipitation 0.00 in 0.14 in 2.47 in (1961)
Month to date precipitation 2.85  
Snow  
Snow 0.00 in - - ()
Month to date snowfall  
Since 1 July snowfall  
Snow Depth -    
Sea Level Pressure  
Sea Level Pressure 30.35 in    
Wind  
Wind Speed 1 mph (South)    
Max Wind Speed 8 mph    
Max Gust Speed -    
Visibility 10 miles    
Events      
T = Trace of Precipitation, MM = Missing Value Source: NWS Daily Summary

Daily Weather History Graph

Daily Weather History Graph

Search for Another Location

Airport:

Trip Planner

Search our weather history database for the weather conditions in past years. The results will help you decide how hot, cold, wet, or windy it might be!

Date:

Astronomy

Dec. 18, 2011 Rise Set
Actual Time 7:39 AM EST 5:32 PM EST
Civil Twilight 7:11 AM EST 6:00 PM EST
Nautical Twilight 6:40 AM EST 6:31 PM EST
Astronomical Twilight 6:09 AM EST 7:02 PM EST
Moon 12:53 AM EST (12/18) 12:45 PM EST (12/18)
Length of Visible Light 10h 48m
Length of Day
9h 53m
Last Quarter, 42% of the Moon is Illuminated
Dec 18
Last Quarter
Dec 24
New
Jan 1
First Quarter
Jan 9
Full
Jan 16
Last Quarter

Hourly Weather History & Observations

Time (EST) Temp. Windchill Dew Point Humidity Pressure Visibility Wind Dir Wind Speed Gust Speed Precip Events Conditions
12:53 AM 32.0 °F - 28.0 °F 85% 30.32 in 10.0 mi Calm Calm - N/A   Clear
1:53 AM 30.0 °F - 27.0 °F 88% 30.34 in 10.0 mi Calm Calm - N/A   Clear
2:53 AM 30.0 °F - 27.0 °F 88% 30.33 in 10.0 mi Calm Calm - N/A   Clear
3:53 AM 28.9 °F - 27.0 °F 92% 30.35 in 10.0 mi Calm Calm - N/A   Clear
4:53 AM 28.9 °F - 26.1 °F 89% 30.35 in 10.0 mi Calm Calm - N/A   Clear
5:53 AM 28.0 °F - 26.1 °F 92% 30.33 in 10.0 mi Calm Calm - N/A   Clear
6:53 AM 27.0 °F - 25.0 °F 92% 30.35 in 9.0 mi Calm Calm - N/A   Clear
7:53 AM 28.9 °F - 25.0 °F 85% 30.36 in 10.0 mi Calm Calm - N/A   Clear
8:53 AM 34.0 °F - 28.0 °F 79% 30.38 in 10.0 mi Calm Calm - N/A   Clear
9:53 AM 39.0 °F - 28.9 °F 67% 30.40 in 10.0 mi Calm Calm - N/A   Clear
10:53 AM 43.0 °F 41.3 °F 30.0 °F 60% 30.42 in 10.0 mi Variable 3.5 mph - N/A   Clear
11:53 AM 46.9 °F - 30.9 °F 54% 30.40 in 10.0 mi Variable 3.5 mph - N/A   Clear
12:53 PM 48.9 °F - 30.0 °F 48% 30.38 in 10.0 mi Variable 3.5 mph - N/A   Clear
2:53 PM 52.0 °F - 27.0 °F 38% 30.35 in 10.0 mi Variable 3.5 mph - N/A   Clear
3:53 PM 52.0 °F - 26.1 °F 37% 30.35 in 10.0 mi NNW 8.1 mph - N/A   Clear
4:53 PM 50.0 °F - 26.1 °F 39% 30.34 in 10.0 mi NNE 5.8 mph - N/A   Clear
5:53 PM 39.9 °F - 32.0 °F 73% 30.34 in 10.0 mi Calm Calm - N/A   Clear
6:53 PM 36.0 °F - 30.0 °F 79% 30.35 in 10.0 mi Calm Calm - N/A   Clear
7:53 PM 36.0 °F - 30.0 °F 79% 30.34 in 10.0 mi Calm Calm - N/A   Clear
9:53 PM 35.1 °F - 30.0 °F 82% 30.33 in 10.0 mi Calm Calm - N/A   Clear
10:53 PM 30.9 °F - 28.9 °F 92% 30.34 in 9.0 mi Calm Calm - N/A   Clear
11:53 PM 28.9 °F - 28.0 °F 96% 30.32 in 8.0 mi Calm Calm - N/A   Clear